Weather History for KCKB - February, 2013

Change the Weather History Date:

Monday, February 4, 2013

  Actual Average Record
Temperature  
Mean Temperature 26 °F -  
Max Temperature 33 °F 39 °F 66 °F (1962)
Min Temperature 19 °F 21 °F -9 °F (1965)
Degree Days  
Heating Degree Days 39    
Moisture  
Dew Point 21 °F    
Average Humidity 78    
Maximum Humidity 96    
Minimum Humidity 54    
Precipitation  
Precipitation 0.07 in - - ()
Sea Level Pressure  
Sea Level Pressure 29.95 in    
Wind  
Wind Speed 7 mph (SSW)    
Max Wind Speed 13 mph    
Max Gust Speed 17 mph    
Visibility 5 miles    
Events Fog , Snow    
Averages and records for this station are not official NWS values.
T = Trace of Precipitation, MM = Missing Value Source: NWS Daily Summary

Daily Weather History Graph

Daily Weather History Graph

Search for Another Location

Airport or City:

Trip Planner

Search our weather history database for the weather conditions in past years. The results will help you decide how hot, cold, wet, or windy it might be!

Date:

Astronomy

Feb. 04, 2013 Rise Set
Actual Time 7:24 AM EST 5:45 PM EST
Civil Twilight 6:56 AM EST 6:13 PM EST
Nautical Twilight 6:24 AM EST 6:45 PM EST
Astronomical Twilight 5:53 AM EST 7:16 PM EST
Moon 1:58 AM EST (2/4) 12:08 PM EST (2/4)
Length of Visible Light 11h 16m
Length of Day
10h 20m
Last Quarter, 37% of the Moon is Illuminated
Feb 4
Last Quarter
Feb 10
New
Feb 17
First Quarter
Feb 25
Full
Mar 4
Last Quarter

Hourly Weather History & Observations

Time (EST) Temp. Windchill Dew Point Humidity Pressure Visibility Wind Dir Wind Speed Gust Speed Precip Events Conditions
12:03 AM 21.2 °F 11.7 °F 10.4 °F 63% 30.06 in 10.0 mi WSW 8.1 mph - N/A   Overcast
12:53 AM 21.0 °F 8.6 °F 12.9 °F 71% 30.09 in 9.0 mi WSW 12.7 mph - 0.00 in   Overcast
1:11 AM 21.2 °F 12.6 °F 12.2 °F 68% 30.06 in 10.0 mi WSW 6.9 mph 17.3 mph N/A   Overcast
1:53 AM 21.0 °F 10.6 °F 12.9 °F 71% 30.09 in 10.0 mi WSW 9.2 mph - 0.00 in   Overcast
2:37 AM 21.2 °F 10.9 °F 12.2 °F 68% 30.06 in 9.0 mi WSW 9.2 mph - 0.00 in   Overcast
2:53 AM 21.0 °F 9.9 °F 12.9 °F 71% 30.09 in 10.0 mi WSW 10.4 mph - 0.00 in   Overcast
3:53 AM 21.0 °F 9.9 °F 12.9 °F 71% 30.09 in 10.0 mi WSW 10.4 mph - N/A   Overcast
5:53 AM 19.9 °F 13.4 °F 12.9 °F 74% 30.12 in 10.0 mi WSW 4.6 mph - N/A   Overcast
6:53 AM 19.9 °F 12.1 °F 12.9 °F 74% 30.12 in 10.0 mi WSW 5.8 mph - N/A   Overcast
7:53 AM 19.9 °F 12.1 °F 12.9 °F 74% 30.11 in 10.0 mi SSW 5.8 mph - N/A   Overcast
8:53 AM 21.0 °F 11.4 °F 14.0 °F 74% 30.11 in 10.0 mi SSW 8.1 mph - N/A   Overcast
9:53 AM 21.9 °F 11.0 °F 12.9 °F 68% 30.09 in 10.0 mi SSW 10.4 mph - N/A   Overcast
10:53 AM 24.1 °F 12.5 °F 14.0 °F 65% 30.06 in 10.0 mi SSW 12.7 mph - N/A   Mostly Cloudy
11:53 AM 26.1 °F 16.8 °F 15.1 °F 63% 30.03 in 10.0 mi SSW 9.2 mph - N/A   Overcast
12:53 PM 28.0 °F 19.3 °F 16.0 °F 61% 29.99 in 10.0 mi SSW 9.2 mph - N/A   Mostly Cloudy
1:53 PM 30.0 °F 20.5 °F 15.1 °F 54% 29.96 in 10.0 mi SW 11.5 mph - N/A   Overcast
2:43 PM 28.4 °F 21.2 °F 17.6 °F 64% 29.90 in 4.0 mi SSW 6.9 mph - N/A   Haze
2:53 PM 28.9 °F 25.2 °F 17.1 °F 61% 29.92 in 4.0 mi SSW 3.5 mph - 0.01 in   Haze
3:00 PM 28.4 °F - 17.6 °F 64% 29.89 in 10.0 mi Calm Calm - 0.01 in   Overcast
3:53 PM 28.9 °F - 19.0 °F 67% 29.92 in 1.8 mi Calm Calm - 0.04 in Snow Light Snow
4:03 PM 28.4 °F 24.6 °F 19.4 °F 69% 29.89 in 2.5 mi South 3.5 mph - 0.01 in Snow Light Snow
4:17 PM 28.4 °F 23.3 °F 19.4 °F 69% 29.88 in 1.8 mi South 4.6 mph - 0.01 in Snow Light Snow
4:23 PM 28.4 °F 23.3 °F 19.4 °F 69% 29.88 in 3.0 mi South 4.6 mph - 0.01 in Snow Light Snow
4:27 PM 28.4 °F 24.6 °F 21.2 °F 74% 29.88 in 2.5 mi South 3.5 mph - 0.02 in Snow Light Snow
4:33 PM 28.4 °F 24.6 °F 21.2 °F 74% 29.87 in 0.8 mi South 3.5 mph - 0.02 in Snow Light Snow
4:53 PM 28.0 °F - 23.0 °F 81% 29.90 in 0.8 mi Calm Calm - 0.02 in Snow Light Snow
5:01 PM 28.4 °F - 24.8 °F 86% 29.86 in 0.5 mi Calm Calm - 0.00 in Fog , Snow Snow
5:08 PM 26.6 °F 22.6 °F 24.8 °F 93% 29.86 in 0.8 mi SE 3.5 mph - 0.00 in Snow Light Snow
5:42 PM 28.4 °F - 24.8 °F 86% 29.86 in 0.2 mi Calm Calm - 0.00 in Fog , Snow Snow
5:53 PM 28.0 °F - 26.1 °F 92% 29.89 in 0.5 mi Calm Calm - 0.00 in Fog , Snow Snow
6:01 PM 28.4 °F - 26.6 °F 93% 29.86 in 0.5 mi Calm Calm - 0.00 in Fog , Snow Snow
6:53 PM 28.9 °F - 27.0 °F 92% 29.90 in 0.5 mi Calm Calm - 0.00 in Fog , Snow Snow
7:25 PM 30.2 °F 24.3 °F 28.4 °F 93% 29.87 in 1.0 mi South 5.8 mph - 0.00 in Snow Light Snow
7:34 PM 30.2 °F 24.3 °F 28.4 °F 93% 29.87 in 1.0 mi South 5.8 mph - 0.00 in Snow Light Snow
7:53 PM 30.0 °F 24.1 °F 28.9 °F 96% 29.90 in 1.8 mi South 5.8 mph - 0.00 in Snow Light Snow
7:55 PM 30.2 °F 24.3 °F 28.4 °F 93% 29.87 in 2.0 mi SSW 5.8 mph - 0.00 in Snow Light Snow
8:02 PM 30.2 °F 25.4 °F 28.4 °F 93% 29.87 in 1.8 mi SSW 4.6 mph - 0.00 in Snow Light Snow
8:53 PM 30.9 °F 25.2 °F 30.0 °F 96% 29.89 in 1.0 mi SSW 5.8 mph - 0.00 in Snow Light Snow
9:53 PM 32.0 °F 26.4 °F 30.9 °F 96% 29.90 in 1.2 mi South 5.8 mph - 0.00 in Snow Light Snow
10:08 PM 32.0 °F 26.4 °F 30.2 °F 93% 29.87 in 3.0 mi SSW 5.8 mph - 0.00 in Snow Light Snow
10:15 PM 33.8 °F 28.6 °F 30.2 °F 87% 29.87 in 3.0 mi South 5.8 mph - 0.00 in Snow Light Snow
10:21 PM 33.8 °F 28.6 °F 30.2 °F 87% 29.86 in 2.5 mi SSW 5.8 mph - 0.00 in Snow Light Snow
10:48 PM 33.8 °F 27.0 °F 30.2 °F 87% 29.86 in 3.0 mi SSW 8.1 mph - 0.00 in Snow Light Snow
10:53 PM 33.1 °F 27.7 °F 30.9 °F 92% 29.88 in 3.0 mi SSW 5.8 mph - 0.00 in Snow Light Snow
11:40 PM 33.8 °F 28.6 °F 30.2 °F 87% 29.85 in 2.5 mi SSW 5.8 mph - 0.00 in Snow Light Snow
11:53 PM 33.1 °F 28.7 °F 30.9 °F 92% 29.87 in 1.8 mi SSW 4.6 mph - 0.00 in Snow Light Snow